RH
93 97 97 92 75 71 71 69 71 75 78 77 79 77 75 70 67 56 55 36 26 59 48 30 69 84 89 62 44 83 59 58 76 62 45 49 61 75 78 89 99 88 48
97 98 95 90 73 70 67 63 68 74 76 77 75 77 80 78 72 66 56 35 40 80 55 49 84 88 90 56 41 81 74 45 63 75 73 85 86 90 96 93 93 59 38
99 97 97 87 77 72 63 58 58 66 72 72 74 75 78 78 72 67 58 36 50 86 72 56 80 87 86 40 34 67 51 43 61 78 87 96 81 78 79 60 43 35 30
98 98 97 87 83 76 74 69 63 61 63 64 66 69 75 80 64 62 60 36 46 78 73 77 73 68 42 24 32 46 36 38 50 57 78 80 90 41 40 35 30 30 30
99 99 94 95 81 78 77 78 79 68 66 66 64 64 76 85 65 61 62 38 36 71 81 83 78 52 24 26 32 42 37 33 34 60 78 82 86 29 29 29 30 31 31
99 99 96 88 84 76 78 73 72 74 70 69 67 66 63 78 75 65 68 44 35 78 84 71 78 48 25 29 31 35 34 31 31 75 78 53 79 30 31 32 36 36 35
97 98 99 80 76 77 76 77 79 77 74 73 77 81 71 73 77 74 77 58 58 83 90 80 76 52 26 29 30 30 30 31 62 73 75 73 37 33 32 36 38 39 38
87 98 98 89 76 76 82 77 81 79 74 70 72 77 74 72 75 78 80 81 72 88 90 92 81 59 29 31 32 34 33 33 54 76 80 87 36 33 34 38 41 43 41
83 91 98 98 95 71 70 76 79 76 71 66 68 70 70 76 77 77 81 84 81 77 83 92 85 66 34 33 36 37 35 35 65 73 79 90 37 34 34 37 42 46 45
77 82 88 97 98 100 98 67 66 66 67 66 65 65 67 66 71 76 77 81 82 77 80 92 89 68 42 35 39 37 37 38 40 73 73 81 48 37 35 37 40 45 48
63 74 78 78 88 97 96 95 85 60 58 60 62 60 60 66 88 75 72 73 77 79 82 89 92 84 51 37 44 40 40 40 61 72 75 63 44 40 40 41 44 48 49
39 54 65 74 76 77 89 98 99 93 81 70 69 72 64 78 88 81 86 83 75 80 86 93 97 88 64 43 42 42 40 51 76 72 74 57 38 39 41 46 48 52 55
26 33 47 58 67 74 71 88 100 98 98 99 92 91 91 87 87 88 88 92 83 86 88 94 99 93 81 68 81 48 42 56 76 76 76 59 41 40 39 43 48 53 57
25 25 24 42 52 59 72 75 88 99 96 93 83 85 92 93 91 88 91 86 85 82 87 91 93 95 96 76 74 74 76 80 79 74 74 62 47 46 45 42 42 48 56
28 26 26 22 38 50 53 71 77 75 86 97 96 81 89 91 93 96 92 91 92 85 85 89 92 92 98 91 83 75 70 70 72 71 73 68 49 44 49 51 54 47 48
34 32 31 28 22 36 43 52 69 74 75 86 94 85 65 80 86 86 87 91 83 84 83 97 94 94 95 93 85 81 69 68 70 67 68 70 58 46 45 50 56 79 68
30 32 34 33 31 30 37 42 75 68 73 84 77 83 69 74 72 81 75 83 88 87 91 96 100 99 94 97 87 71 62 64 66 67 67 69 70 56 48 46 51 60 63
37 36 32 33 34 32 29 39 66 88 70 88 89 84 83 78 77 81 90 92 86 87 84 80 86 93 92 96 96 82 59 62 61 58 60 64 66 64 56 48 45 49 65
45 43 41 40 40 40 35 35 49 91 88 93 90 77 73 77 72 72 83 89 93 92 91 92 86 86 92 88 89 95 87 59 50 49 47 63 65 60 65 62 49 49 50
55 53 50 48 44 43 40 37 51 77 91 99 99 77 63 60 58 68 72 71 91 91 93 87 87 83 90 100 96 92 91 96 84 69 68 63 64 68 66 54 58 48 51
75 58 56 56 51 49 44 45 60 85 100 100 98 86 66 56 61 66 60 54 56 74 71 79 96 99 96 99 97 99 96 93 100 82 53 69 66 63 68 73 56 47 49
89 83 71 58 54 51 52 42 63 86 94 99 99 94 84 75 64 62 60 55 52 86 71 75 90 99 99 94 100 98 100 94 95 85 76 70 67 65 59 62 53 43 39
97 98 96 81 57 53 52 34 74 41 94 99 99 89 74 79 82 83 78 74 81 87 94 86 79 93 98 98 94 100 93 87 78 75 73 71 68 64 66 51 46 43 37
96 99 98 95 81 61 50 35 74 79 92 92 94 96 93 79 78 94 93 93 92 90 92 96 94 90 96 97 100 99 89 83 82 73 69 72 70 66 57 51 51 46 39
100 98 99 87 76 76 71 81 80 88 97 86 95 98 99 99 100 99 100 97 94 89 98 96 93 93 90 90 90 92 94 93 89 92 88 78 74 69 68 68 64 46 40
98 99 98 94 94 79 70 81 79 99 91 94 95 99 94 88 96 99 98 98 100 100 99 99 98 96 98 94 97 99 100 99 97 98 97 87 81 73 71 63 60 50 54
Wind_Speed
9 10 8 9 11 12 12 11 9 8 9 8 7 7 6 4 1 0 1 2 5 5 6 9 10 10 10 7 9 9 10 11 9 9 11 12 12 12 13 12 13 8 8
9 9 6 10 11 12 12 11 10 8 8 8 7 7 7 6 4 3 3 3 5 5 6 10 9 10 8 5 8 9 8 9 10 10 10 9 11 13 13 11 7 5 5
8 6 6 10 10 10 11 11 10 9 8 8 7 7 7 7 6 5 4 5 6 5 4 9 8 9 7 5 9 10 9 10 11 12 14 6 8 8 6 4 3 3 4
6 5 5 10 11 11 10 11 11 10 10 9 8 8 8 8 7 6 6 6 9 8 6 8 9 6 6 8 10 10 9 10 10 11 8 4 3 3 3 2 2 3 3
4 4 7 11 12 12 12 11 11 11 11 10 9 9 8 8 7 7 7 8 12 11 10 10 7 5 6 9 10 9 9 8 9 7 5 5 2 3 3 3 3 3 4
2 2 8 11 13 12 12 12 12 11 12 11 10 10 10 9 8 8 8 8 12 13 13 11 9 6 8 9 10 9 8 7 7 5 4 7 6 3 4 3 3 3 3
2 4 5 8 12 12 12 13 13 13 12 11 11 11 10 10 10 9 10 10 12 13 13 12 9 8 10 10 9 8 7 7 6 4 4 5 4 4 3 2 2 2 3
2 6 4 8 11 12 12 14 14 14 14 13 13 13 12 11 12 12 12 12 13 13 12 15 9 9 12 11 10 8 7 7 6 4 5 5 4 5 3 2 1 1 1
5 6 7 6 10 13 15 14 14 14 14 14 14 15 14 14 13 14 15 14 15 15 14 18 12 10 13 12 11 10 8 7 8 5 4 5 6 5 4 3 1 0 0
9 9 10 10 9 9 11 15 17 17 16 15 15 16 16 17 17 16 16 16 17 17 16 18 15 11 13 13 13 11 10 9 7 9 6 9 7 6 5 4 2 1 1
12 13 12 14 15 12 13 13 17 18 17 18 18 18 18 19 15 17 19 18 18 17 17 19 17 13 15 16 15 13 12 10 5 8 6 12 9 8 6 5 4 3 3
14 14 15 16 17 18 17 14 15 14 16 18 18 16 16 15 13 15 18 20 19 18 19 19 18 15 15 18 18 17 15 11 10 9 9 12 10 10 8 7 6 5 5
15 18 17 18 19 20 21 21 19 18 19 15 14 14 13 13 17 17 19 22 21 21 21 22 22 20 18 17 14 18 18 13 12 11 13 13 12 11 10 9 8 8 7
18 21 23 21 23 20 23 24 24 21 21 23 21 17 15 15 16 17 15 18 20 22 23 23 22 19 17 20 16 16 15 13 14 12 13 15 14 13 12 12 11 11 10
21 21 22 24 25 25 23 25 26 27 23 19 18 20 16 16 15 16 17 18 20 20 22 23 22 17 17 18 20 19 17 16 14 13 13 16 16 15 14 14 14 14 13
22 23 21 21 25 27 28 26 28 29 28 23 22 25 24 22 20 18 18 22 22 22 21 20 23 24 20 19 20 20 18 19 17 16 15 15 17 18 17 16 16 15 15
23 24 24 24 22 24 24 27 25 32 31 27 27 26 26 23 19 16 17 17 17 19 18 21 23 23 23 25 21 17 19 20 20 18 18 17 17 18 19 19 18 18 17
23 25 25 24 24 23 22 23 22 27 31 30 26 27 28 27 22 18 14 14 14 13 15 19 22 27 29 28 21 27 27 26 24 20 19 20 20 20 20 21 20 20 19
21 22 24 23 25 25 23 24 24 28 26 28 28 28 20 24 21 20 19 14 14 14 16 18 20 22 24 25 27 26 28 34 32 28 26 23 24 25 22 21 22 21 23
21 21 22 22 23 22 22 25 23 30 28 28 24 26 26 24 19 21 23 16 17 16 21 24 23 25 25 26 26 28 28 29 31 32 27 27 26 24 25 26 25 23 23
23 21 21 21 22 20 21 22 22 30 27 32 29 29 29 24 22 19 17 11 14 29 29 24 21 22 25 27 24 25 26 27 32 39 39 32 28 26 26 26 25 25 25
25 24 24 23 21 20 21 22 25 23 27 30 37 33 29 28 26 25 26 24 22 31 27 23 23 25 28 28 29 24 18 26 31 37 41 46 42 34 34 32 32 30 26
25 23 22 20 21 20 20 21 26 25 22 24 31 29 32 31 30 31 30 27 28 28 24 22 22 23 26 25 26 25 9 14 17 22 29 35 49 49 42 39 38 36 34
25 23 20 18 19 20 20 20 23 23 23 26 29 24 21 20 20 21 21 23 23 24 22 23 21 20 24 28 24 25 28 23 11 15 19 24 25 36 41 41 41 40 41
19 21 16 15 13 15 16 18 19 18 21 26 25 24 19 13 11 11 14 18 19 20 21 23 23 24 27 28 30 31 30 31 32 34 26 24 22 31 31 28 30 39 42
14 16 14 11 8 6 8 11 11 11 7 17 13 13 15 16 14 14 15 17 16 19 21 23 24 26 27 29 30 33 34 30 32 36 37 40 39 40 32 34 39 41 37
Wind_Direction
347 288 225 198 187 183 186 197 202 193 187 185 194 193 197 190 196 291 285 174 143 130 125 135 131 128 131 117 118 124 117 132 120 113 113 115 111 111 109 107 106 114 77
336 279 236 203 202 190 192 200 209 203 195 199 205 207 212 218 235 264 252 195 160 142 125 146 138 143 162 142 138 139 126 125 125 111 108 104 115 115 117 111 114 89 79
358 242 225 209 211 200 197 198 211 214 209 209 217 223 235 233 242 254 238 210 169 175 162 158 158 170 197 166 154 150 135 125 129 104 86 66 115 120 121 112 89 70 71
17 240 218 228 216 215 214 206 211 221 222 228 229 229 233 242 238 241 225 213 180 184 192 175 179 190 201 161 157 152 143 138 137 115 85 116 119 147 138 115 90 86 82
5 236 227 227 229 220 229 230 224 227 229 229 229 231 233 244 242 240 225 210 191 194 193 191 182 180 180 168 163 159 153 147 147 116 139 133 146 143 141 133 107 82 77
95 270 251 245 228 225 230 236 237 232 231 232 236 242 243 236 247 237 226 216 200 202 202 198 198 187 181 178 172 170 168 161 155 133 161 147 186 155 141 118 94 82 81
192 152 261 252 226 227 233 236 238 238 236 238 239 238 241 240 241 235 230 219 215 215 212 203 201 200 191 186 182 180 179 174 131 178 172 140 207 172 155 142 113 76 68
231 189 200 266 238 236 238 235 238 238 239 242 244 246 248 243 241 237 232 231 227 223 227 214 217 217 202 196 195 193 189 188 150 202 188 170 200 189 178 170 116 74 70
291 232 218 224 269 249 244 242 241 243 244 247 249 251 251 249 247 243 239 238 238 236 232 219 231 227 212 209 206 201 203 198 166 232 200 227 209 207 200 199 196 142 48
306 277 248 239 233 244 262 256 246 246 245 246 249 253 252 252 253 251 248 242 242 236 231 223 233 236 220 217 210 209 206 206 192 225 194 228 235 224 219 220 221 227 243
302 293 277 261 245 235 236 250 260 245 245 247 250 250 251 252 255 266 254 248 245 239 232 229 235 242 227 220 218 217 216 212 210 224 205 242 233 231 227 229 234 244 246
296 285 283 277 268 255 238 235 252 245 253 250 253 251 255 244 241 239 252 260 246 241 234 231 237 242 237 226 225 223 222 207 227 229 226 241 232 235 235 238 241 245 251
290 283 275 275 270 269 257 244 242 231 230 227 233 242 241 242 242 239 238 249 245 235 232 230 235 236 235 216 229 236 228 210 228 233 238 246 238 240 243 244 246 248 251
285 278 271 270 271 270 265 255 247 246 247 245 237 221 237 236 235 235 236 245 253 237 231 231 236 236 235 227 221 229 229 223 223 228 242 256 243 244 246 248 248 248 249
285 283 278 267 262 265 267 261 252 247 246 244 243 232 220 239 232 237 232 229 239 237 234 234 234 225 221 225 223 227 224 232 231 233 235 254 246 246 247 249 252 251 252
285 283 281 277 267 259 261 261 257 250 245 239 242 241 230 220 227 231 228 235 236 240 238 235 237 226 227 218 229 229 230 231 232 235 241 255 256 248 249 249 252 254 257
289 283 278 275 274 263 260 256 256 252 247 242 240 241 234 231 225 229 238 241 242 239 237 238 234 237 233 242 234 228 236 237 240 239 234 241 258 258 250 251 251 252 251
291 285 279 274 268 268 261 260 255 253 246 239 240 238 236 238 224 216 224 241 236 239 243 246 244 242 248 250 239 230 230 232 232 232 243 245 247 251 255 253 254 253 254
300 288 280 274 272 261 259 250 252 252 244 233 233 235 226 221 226 233 215 235 241 249 252 249 249 250 251 253 248 249 237 240 246 245 242 244 245 246 248 258 255 255 252
306 298 286 277 265 259 259 245 244 249 242 228 222 217 221 219 224 227 227 241 273 266 262 263 260 258 252 252 255 249 248 244 245 246 241 243 246 250 257 251 252 256 255
323 306 295 279 265 260 259 253 241 243 245 223 220 216 222 223 227 234 236 245 266 267 270 266 257 259 256 252 250 254 256 253 244 246 247 241 238 242 247 250 253 256 261
315 314 299 281 263 258 257 250 243 247 247 241 230 226 223 228 228 225 232 258 248 265 267 264 253 259 255 253 250 249 255 264 261 253 254 247 246 240 243 246 258 264 269
321 303 299 286 265 256 261 265 250 246 247 238 232 229 229 231 237 237 244 253 251 249 259 264 260 259 258 256 256 235 234 246 259 264 264 259 251 250 254 255 259 255 259
324 318 309 288 274 266 262 258 248 240 236 235 220 214 211 217 224 231 239 241 247 251 256 261 266 261 255 254 248 246 241 246 259 265 255 256 259 256 254 258 259 257 258
334 334 320 314 268 255 255 242 231 245 244 241 221 184 180 185 204 228 235 247 252 258 259 260 262 261 259 257 255 254 259 261 258 248 257 257 252 248 247 243 243 253 256
358 351 342 316 302 291 234 210 236 262 311 342 245 179 190 208 218 235 246 247 249 256 259 263 266 265 264 263 263 261 260 258 262 254 248 256 256 257 258 253 248 245 255